Погода в Красноселькупе

Погода в Красноселькупе : погода сейчас, прогноз погоды и архив. Всё, что Вы хотите узнать о погоде в Красноселькупе!

Поиск расширенной информации на нашем сайте:

Другие новости

Новости СМИ2

Главная страница сайта

Новости сайта

02.10.2013

Напоминаем, что на нашем новом сайте вы можете получить высокодетализированные прогнозы погоды по пунктам России, СНГ и мира (включающие важные для авиации метеовеличины, такие как направление и скорость ветра, видимость, явления погоды, количество и форма облачности, нижняя и верхняя граница облачности), а также ознакомиться с разнообразными материалами по авиационной метеорологии и подборкой полезных ссылок на эту тему.

Сайт Метеоцентр.Азия посвящён разработке технологий оптимизации авиаметеорологического обслуживания, включая проектирование и перспективное создание нескольких автоматизированных авиаметеорологических систем:
- система выпуска высокодетальных прогностических карт явлений погоды для нижнего воздушного пространства по России и ближнему зарубежью;
- система верификации прогнозов TAF (выпускаемых синоптиками официальных АМСГ РФ и ближнего зарубежья) и AUTOTAF (выпускаемых сайтом Метеоцентр.Азия) - выявление ошибок, онлайн-сопоставление с фактической погодой METAR, автоматическое внесение коррективов в прогнозы при резком отклонении фактической погоды от прогноза, подсчёт оправдываемости прогнозов по элементам и в целом;
- система обработки, анализа и отображения авиаметеорологической информации для применения провайдерами метеорологической информации.

Рекомендуем: Ответы анимационные картинки грузовых машин.

Погода в Красноселькупе - сегодня

Время (UTC), дата Ветер
(°,м/с) 
Видим.   Явления Облачность Т
(°С)
Тd
(°С)
f(%) Тe
(°С)
Pmin
(гПа)
dP
(гПа)
Po
(мм)
O2
(г/м3)
Тmin Tmax R s Состояние
почвы
09 25.04.17 250 (З) 6{11}  20000 м    3/3 600 м 
[Sc]
+6.2 -1.5 58 +4  1018.2  1.9  761  300           
12 25.04.17 230 (ЮЗ) 20000 м    10/0 верхняя 
[Ci fib]
+6.8 -2.3 52 +6  1018.5  0.3  761  300           
15 25.04.17 160 (Ю) 20000 м    10/0 средняя 
[Ac As]
+5.5 -2.6 56 +6  1016.5  -1.9  760  301    +7.3       
18 25.04.17 160 (Ю) 4{13}  10 км  слаб. дождь  10/0 средняя 
[Ac As]
+5.2 -0.2 68 +4  1013.5  -3  758  300           
21 25.04.17 150 (ЮВ) 6-10{14}  4000 м  слаб. дождь  10/8 420 м средняя 
[Sc|Ac As]
+2.8 +1.5 91 1007  -6.5  753  300           
00 26.04.17 250 (З) 20000 м    10/10 420 м 
[Sc]
+1.3 -0.9 85 -2  1012  1.6  757  304           
03 26.04.17 230 (ЮЗ) 6{12}  2000 м    10/10 330 м 
[Sc]
+4.3 +2.2 86 +2  1004.8  1.1  751  298  +2.6    47  неравномерный
мокрый или
старый снег
100% 
06 26.04.17 260 (З) 8-14{15}  20000 м    10/9 420 м кучево-дожд. 
[Cb cap]
+3.7 -0.1 76 1007.2  2.4  753  299           
09 26.04.17 280 (З) 7-10{15}  20000 м    10/10 450 м 
[Sc]
+0.6 -2.8 78 -3  1012.7  2.4  757  305           
12 26.04.17 320 (СЗ) 4{12}  20000 м    10/10 400 м 
[Sc]
-1.6 -4.3 82 -4  1016.6  3.8  760  309           
15 26.04.17 330 (СЗ) 20000 м    10/9 300 м 
[Sc]
-3.2 -5.9 82 -6  1018.6  761  311    -4.6       
18 26.04.17 360 (С) 20000 м    3/0 средняя 
[Ac trans]
-6.6 -8.8 84 -10  1019.7  1.1  762  316           
21 26.04.17 010 (С) 20000 м    9/0 средняя 
[Ac trans]
-8.8 -11.1 83 -13  1020.4  0.7  763  319           
00 27.04.17 020 (С) 20000 м    10/0 средняя, верхняя 
[Ac trans|Ci fib]
-10.3 -12.8 82 -14  1019.7  -0.7  762  320           
03 27.04.17 030 (СВ) 6-10{10}  20000 м    9/0 средняя 
[Ac trans]
-8.8 -13.1 71 -14  1020.3  0.6  763  319  -10.3      39  неравномерный
мокрый или
старый снег
100% 
06 27.04.17 030 (СВ) 6{11}  20000 м    10/0 средняя 
[Ac trans]
-5.7 -11.8 62 -10  1019.2  -1  762  315           
09 27.04.17 010 (С) 7-11{11}  20000 м    3/0 верхняя 
[Ci fib]
-4.3 -11.2 59 -9  1018.5  -0.7  761  313           
12 27.04.17 010 (С) 6{12}  20000 м    ясно 
-4.3 -11.2 59 -9  1019.5  1.1  762  313           
15 27.04.17 340 (С) 3{10}  20000 м    5/5 400 м 
[Sc]
-6.9 -11.3 71 -10  1020.5  763  316    -4       
18 27.04.17 350 (С) 20000 м    10/10 600 м 
[Sc]
-6.2 -9.6 77 -8  1021.2  0.7  763  316           
21 27.04.17 320 (СЗ) 20000 м    10/10 540 м 
[Sc]
-7.3 -10.7 77 -9  1022.1  0.8  764  317           
00 28.04.17 170 (Ю) 20000 м    10/10 420 м 
[Sc]
-7 -10.2 78 -8  1021.8  -0.3  764  317           
03 28.04.17 180 (Ю) 20000 м    10/10 330 м 
[Sc]
-5.8 -9.5 75 -10  1019.4  -2.4  762  315  -7.5      36  неравномерный
мокрый или
старый снег
100% 
06 28.04.17 170 (Ю) 20000 м    10/8 300 м средняя 
[Sc|Ac As]
-3.5 -10.6 58 -7  1015.8  -3.6  759  311           
09 28.04.17 180 (Ю) 7-12{12}  1000 м  сильн. снег  10/10 180 м 
[Ns]
-3 -5.3 84 -7  1011.3  -4.4  756  309           
Время (UTC), дата Ветер
(°,м/с) 
Видим.   Явления Облачность Т
(°С)
Тd
(°С)
f(%) Тe
(°С)
Pmin
(гПа)
dP
(гПа)
Po
(мм)
O2
(г/м3)
Тmin Tmax R s Состояние
почвы

Для получения пояснительной информации подведите курсор к названию столбца.

ПОГОДА в Красноселькупе - архив

Всё, что Вы хотите узнать о погоде в Красноселькупе - удобно и подробно!

Выберите нужную дату (начиная с 1 января 2015* года) и нажмите кнопку "Найти".
Будут отображены архивные сводки погоды по пункту Красноселькуп, начиная с указанной даты.


Отображать данные в формате CSV (для использования в таблицах Excel)


Внимание! Наш архив погоды предназначен исключительно для личного некоммерческого использования в познавательных целях. Если Вам необходимы официальные справки о состоянии погоды (для производственных, юридических, коммерческих и т.п. целей), обращайтесь в органы Росгидромета.

*Примечание: данная дата относится к архиву по метеостанциям СССР (Россия, СНГ, Балтия).
Архив по метеостанциям Зарубежной Европы и Азии (кроме Китая) хранится 10 дней, по другим регионам земного шара (Китай, Африка, Америка, Австралия, Океания) - 1 день.

Красноселькуп - район местоположения метеостанции


Название, широта, долгота, высота метеостанции:
Красноселькуп 65.7°ш. 82.5°д. 60 м над ур. моря [Российская Федерация]

Дополнительная информация

В oтличие oт бoльшинства пoгoдных сайтoв мы публикуем пoдрoбную метеoинфoрмацию в детальнoм прoфессиoнальнoм фoрмате.

Характеристики температуры и влажнoсти вoздуха измеряются на высoте 2 м в тени вдали oт зданий и деревьев.
Скoрoсть ветра измеряется на высoте 10 м (на урoвне рoста челoвека скoрoсть ветра ниже в 1.5-2 раза). Если метеoстанция нахoдится в гoрoде или в лесу, тo скoрoсть ветра занижена на 2-4 м/с пo сравнению с oткрытым местoм. Скoрoсть ветра над акватoриями крупных рек и oзёр, а также на вершинах хoлмoв на 2-5 м/с выше, чем в oбычных услoвиях.
Атмoсфернoе давление в разных тoчках местнoсти мoжет значительнo oтличаться oт давления на метеoстанции, в зависимoсти oт услoвий рельефа (при пoдъёме на 10 м давление пoнижается примернo на 1 мм рт.ст.).